Location: Gollag?dem
(17.0207°N, 80.7261°E)
Time: 12:51:58
(UTC+00:00)

SPOT 1/Viking Rocket - Pass Details

Date: 03 August 2024
Orbit: 774 x 792 km, 98.3° (Epoch: 11 September)

Event Time Altitude Azimuth Distance (km) Brightness Sun altitude
Exits shadow 14:17:09 - 169° (SSE) 2,534 5.9 -16.1°
Reaches altitude 10° 14:17:39 10° 169° (SSE) 2,335 5.7 -16.2°
Maximum altitude 14:22:49 86° 257° (WSW) 792 3.5 -17.3°
Drops below altitude 10° 14:28:01 10° 347° (NNW) 2,350 6.5 -18.4°
Sets 14:30:21 0° 348° (NNW) 3,281 7.3 -18.9°
